This demonstration page uses our WeatherBlox Daily Observations layout. Learn more.

Left ArrowRight Arrow

Hourly Observations for February 27, 2019

Temp ( °F °C ) Dew Point ( °F °C ) Humidity (%) Winds ( mph kmh ) Pressure ( in mb ) Visibility ( mi km ) Precip ( " mm )
12:53 am 00:53 Clear 29 -1.7 22 -5.6 75 75 E 5 7 30.28 1026 10 16.0934 N/A
1:53 am 01:53 Clear 27 -2.8 22 -5.6 81 81 ENE 3 6 30.26 1025 10 16.0934 N/A
2:53 am 02:53 Clear 25 -3.9 20 -6.7 81 81 NE 3 6 30.24 1024 9 14.48406 N/A
3:53 am 03:53 Clear 26 -3.3 21 -6.1 81 81 NNE 5 7 30.21 1023 10 16.0934 N/A
4:53 am 04:53 Clear 26 -3.3 21 -6.1 81 81 N N/A 30.19 1022 10 16.0934 N/A
5:53 am 05:53 Clear 27 -2.8 21 -6.1 78 78 NE 5 7 30.18 1022 10 16.0934 N/A
6:53 am 06:53 Clear 27 -2.8 21 -6.1 78 78 NE 3 6 30.18 1022 10 16.0934 N/A
7:53 am 07:53 Sunny 28 -2.2 22 -5.6 78 78 E 3 6 30.18 1022 10 16.0934 N/A
8:53 am 08:53 Sunny 31 -0.6 23 -5 72 72 ESE 3 6 30.17 1022 10 16.0934 N/A
9:53 am 09:53 Sunny 36 2.2 24 -4.4 62 62 N N/A 30.15 1021 10 16.0934 N/A
10:53 am 10:53 Partly Cloudy 44 6.7 26 -3.3 49 49 ESE 3 6 30.11 1020 10 16.0934 N/A
11:53 am 11:53 Cloudy 53 11.7 28 -2.2 38 38 SSW 7 11 30.07 1018 10 16.0934 N/A
12:53 pm 12:53 Cloudy 52 11.1 32 undefined 47 47 W 6 9 30.06 1018 10 16.0934 N/A
1:53 pm 13:53 Cloudy 57 13.9 34 1.1 42 42 WSW 7 11 30.02 1017 10 16.0934 N/A
2:53 pm 14:53 Cloudy 56 13.3 35 1.7 46 46 W 7 11 30.01 1016 10 16.0934 N/A
3:53 pm 15:53 Cloudy 56 13.3 39 3.9 53 53 VRB 6 9 29.99 1016 10 16.0934 N/A
4:53 pm 16:53 Cloudy 53 11.7 39 3.9 59 59 NW 9 15 30 1016 10 16.0934 N/A
5:53 pm 17:53 Cloudy 49 9.4 35 1.7 59 59 WNW 17 28 30.03 1017 10 16.0934 N/A
6:53 pm 18:53 Cloudy 46 7.8 34 1.1 63 63 NW 16 26 30.07 1018 10 16.0934 N/A
7:53 pm 19:53 Cloudy 42 5.6 32 undefined 68 68 NW 15 24 30.1 1019 10 16.0934 N/A
8:53 pm 20:53 Cloudy 40 4.4 31 -0.6 70 70 NW 12 19 30.12 1020 9 14.48406 N/A
9:01 pm 21:01 Cloudy 40 4.4 31 -0.6 70 70 NW 13 20 30.13 1020 10 16.0934 N/A
9:53 pm 21:53 Cloudy 38 3.3 30 -1.1 73 73 WNW 13 20 30.14 1021 10 16.0934 N/A
10:39 pm 22:39 Cloudy 37 2.8 29 -1.7 73 73 NNW 10 17 30.16 1021 10 16.0934 N/A
10:51 pm 22:51 Cloudy 37 3 28 -2 70 70 NNW 8 13 30.16 1021 10 16.0934 N/A
10:53 pm 22:53 Cloudy 37 2.8 29 -1.7 73 73 NW 9 15 30.14 1021 10 16.0934 N/A
11:53 pm 23:53 Cloudy 35 1.7 27 -2.8 72 72 NW 12 19 30.15 1021 9 14.48406 N/A

Powered by AerisWeather